Regional Weather Roundup
Issued by NWS Sioux Falls, SD

Home | Current Version | Previous Version | Graphics & Text | Print | Product List | Glossary On
Versions: 1 2 3 4 5 6 7 8 9 10 11 12 13 14 15 16 17 18 19 20 21 22 23 24 25 26 27 28 29 30 31 32 33 34 35 36 37 38 39 40 41 42 43 44 45 46 47 48 49 50
000
ASUS43 KFSD 022310
RWRFSD

WEATHER ROUNDUP FOR SE SOUTH DAKOTA/SW MINNESOTA/NW IOWA
NATIONAL WEATHER SERVICE SIOUX FALLS SD
600 PM CDT SAT MAY 02 2015

NOTE: "FAIR" INDICATES FEW OR NO CLOUDS BELOW 12,000 FEET WITH NO
SIGNIFICANT WEATHER AND OR OBSTRUCTIONS TO VISIBILITY.


SDZ038>040-050-052>070-030000-
SOUTHEAST SOUTH DAKOTA

CITY           SKY/WX    TMP DP  RH WIND       PRES   REMARKS
BROOKINGS      SUNNY     81  43  26 S18G24    29.72F
CHAMBERLAIN    MOSUNNY   84  42  23 S14       29.66F
HURON          SUNNY     84  41  21 S13G21    29.65F
MADISON        FAIR      79  41  25 SW18G24   29.73F
MITCHELL       SUNNY     84  46  26 S12       29.69F
SIOUX FALLS    MOSUNNY   77  48  35 S16G23    29.74F
WINNER         FAIR      85  37  18 S12       29.67F
YANKTON        SUNNY     81  52  36 S12       29.71F
$$

MNZ071-072-080-081-089-090-097-098-030000-
SOUTHWEST MINNESOTA

CITY           SKY/WX    TMP DP  RH WIND       PRES   REMARKS
FAIRMONT       MOSUNNY   77  27  15 S20       29.78F
JACKSON        SUNNY     77  43  29 SW18      29.80S
LUVERNE        SUNNY     79  45  29 S15G21    29.76F
MARSHALL       MOSUNNY   82  39  21 SW14      29.71F
MONTEVIDEO     SUNNY     86  39  19 SW13      29.69S
REDWOOD FALLS  PTSUNNY   83  41  22 S9        29.71F
TRACY          MOSUNNY   81  46  28 S16G26    29.74S
WINDOM         MOSUNNY   79  43  27 S15G22    29.77S
WORTHINGTON    SUNNY     77  46  33 S18       29.78F
$$

IAZ001>003-012>014-020>022-031-032-NEZ013-014-SDZ071-030000-
NORTHWEST IOWA

CITY           SKY/WX    TMP DP  RH WIND       PRES   REMARKS
CHEROKEE       SUNNY     72  55  55 S14G22    29.80S
DENISON        SUNNY     70  57  64 S22       29.80F
ESTHERVILLE    SUNNY     75  49  39 S20G28    29.79F
LE MARS        SUNNY     75  55  50 S16       29.78F
ORANGE CITY    SUNNY     73  54  49 S13G22    29.79S
SHELDON        MOSUNNY   77  54  44 S15G22    29.77F
SIOUX CITY     SUNNY     78  54  43 S12G17    29.77F
SPENCER        MOSUNNY   76  53  44 S17       29.80S
STORM LAKE     SUNNY     72  54  53 S20G26    29.82S
$$

ABBREVIATIONS USED IN REMARKS
   TC - TEMPERATURE IN CELSIUS
  WCI - WIND CHILL INDEX
   HX - HEAT INDEX
  VSB - VISIBILITY



USA.gov is the U.S. government's official web portal to all federal, state and local government web resources and services.